Weather Roundup
Issued by NWS

Home | Current Version | Previous Version | Graphics & Text | Print | Product List | Glossary Off
Versions: 1 2 3 4 5 6 7 8 9 10 11 12 13 14 15 16 17 18 19 20 21 22 23 24 25 26 27 28 29 30 31 32 33 34 35 36 37 38 39 40 41 42 43 44 45 46 47 48 49 50

091
NZUS93 KARX 280059
HRRWXR

CURRENT HOURLY OBSERVATIONS ACROSS
MUCH OF THE UPPER MISSISSIPPI VALLEY
NATIONAL WEATHER SERVICE LA CROSSE WI
800 PM CDT FRI MAY 27 2016


...SOUTHEAST MINNESOTA...


CITY           SKY/WX    TMP DP  RH WIND       PRES   REMARKS
ROCHESTER      CLEAR     68  64  87 NW6       29.75S
ROCHESTER/MAYO FAIR      68  64  85 NW7       29.75R
WINONA         CLOUDY    70  64  83 NW3       29.73S
AUSTIN         CLEAR     70  63  78 CALM      29.75R
ALBERT LEA     CLEAR     70  61  73 CALM      29.75R
DODGE CENTER   CLEAR     66  63  88 N7        29.75S
PRESTON        PTCLDY    69  63  82 N3        29.75R
OWATONNA       CLEAR     66  61  82 NE5       29.75R
FARIBAULT      NOT AVBL
$$

...ELSEWHERE IN MINNESOTA...


CITY           SKY/WX    TMP DP  RH WIND       PRES   REMARKS
MINNEAPOLIS    PTCLDY    65  60  84 N7        29.74S
INTNL FALLS    CLOUDY    65  53  65 E6        29.84S
DULUTH         CLOUDY    55  53  93 E12       29.81F
RED WING       PTCLDY    70  64  83 N3        29.72S
REDWOOD FALLS  CLEAR     69  60  73 VRB3      29.72R
MANKATO        PTCLDY    70  61  73 E8        29.73S
WORTHINGTON    MOCLDY    71  57  61 E7        29.73R
FAIRMONT       CLEAR     73  57  56 NE6       29.72S
$$

...SOUTHWEST WISCONSIN...


CITY           SKY/WX    TMP DP  RH WIND       PRES   REMARKS
LA CROSSE      CLEAR     71  67  87 CALM      29.71R
PRAIRIE DU CHI CLEAR     67  66  96 CALM      29.72F
BOSCOBEL       CLEAR     71  66  84 CALM      29.73R
LONE ROCK      NOT AVBL
PLATTEVILLE    MOCLDY    73  68  85 S7        29.75S
FORT MC COY    DRIZZLE   70  69  97 CALM      29.73F
MAUSTON-NEW LI MOCLDY    71  69  93 CALM      29.74F
VIROQUA        MOCLDY    72  67  86 SE9       29.75R
WIS DELLS      CLOUDY    71  65  81 SE6       29.76S
$$

...ELSEWHERE IN WISCONSIN...


CITY           SKY/WX    TMP DP  RH WIND       PRES   REMARKS
MILWAUKEE      CLOUDY    67  64  90 SE9       29.83R
MADISON        CLOUDY    73  66  78 S12       29.77S
GREEN BAY      CLOUDY    67  65  93 SE12      29.83S FOG
EAU CLAIRE     CLOUDY    67  65  93 W6        29.73R
BLACK RVR FLS  LGT RAIN  74  64  69 SE8       29.71F
MEDFORD        LGT RAIN  66  66  98 SE9G16    29.78S
WAUSAU         RAIN      67  64  90 E10       29.78F FOG
WIS RAPIDS     CLOUDY    69  65  86 E8        29.78S
MARSHFIELD     MOCLDY    69  65  86 E9        29.76F
RICE LAKE      RAIN      62  60  94 N8        29.76S
$$

...NORTHEAST IOWA...


CITY           SKY/WX    TMP DP  RH WIND       PRES   REMARKS
WATERLOO       CLEAR     72  63  73 NW7       29.72S
DUBUQUE        CLOUDY    73  66  78 S9        29.75R
DECORAH        PTCLDY    72  68  88 CALM      29.72F
MASON CITY     CLEAR     72  62  71 CALM      29.75S
CHARLES CITY   CLEAR     72  66  83 NW6       29.75R
OELWEIN        CLEAR     73  66  78 W7        29.74S
$$

...ELSEWHERE IN IOWA...


CITY           SKY/WX    TMP DP  RH WIND       PRES   REMARKS
DES MOINES     MOCLDY    74  61  63 NE7       29.70F
IOWA CITY      MOCLDY    76  65  68 NW6       29.73R
FORT DODGE     PTCLDY    72  59  64 E5        29.72F
MARSHALLTOWN   CLEAR     73  63  70 N7        29.71F
CEDAR RAPIDS   CLOUDY    77  67  71 VRB3      29.72R
$$

...NORTHERN ILLINOIS...


CITY           SKY/WX    TMP DP  RH WIND       PRES   REMARKS
CHICAGO-OHARE  CLOUDY    76  66  71 S9        29.82S
CHICAGO-MIDWAY CLOUDY    78  67  68 S10       29.83S
MOLINE         CLEAR     77  67  71 S13       29.74S
ROCKFORD       MOCLDY    76  66  71 S13       29.82R
PEORIA         CLOUDY    76  67  73 S14       29.80R
$$

NOTE: "FAIR" INDICATES FEW OR NO CLOUDS BELOW 12,000 FEET WITH NO
SIGNIFICANT WEATHER AND/OR OBSTRUCTIONS TO VISIBILITY. WIND
SPEEDS ARE IN MILES-PER-HOUR.




USA.gov is the U.S. government's official web portal to all federal, state and local government web resources and services.